Mankato, MN

12:20 PM CST on December 04, 2016 (GMT -0600)
Mankato Regional

Weather History for KMKT - March, 2014

Change the Weather History Date:

Wednesday, March 26, 2014

  Actual Average Record
Temperature  
Mean Temperature 30 °F -  
Max Temperature 46 °F 43 °F 78 °F (2007)
Min Temperature 15 °F 28 °F 6 °F (2001)
Degree Days  
Heating Degree Days 34    
Moisture  
Dew Point 19 °F    
Average Humidity 59    
Maximum Humidity 80    
Minimum Humidity 42    
Precipitation  
Precipitation 0.00 in - - ()
Sea Level Pressure  
Sea Level Pressure 29.86 in    
Wind  
Wind Speed 14 mph (SSE)    
Max Wind Speed 28 mph    
Max Gust Speed 38 mph    
Visibility 10 miles    
Events      
Averages and records for this station are not official NWS values.
T = Trace of Precipitation, MM = Missing Value Source: NWS Daily Summary

Daily Weather History Graph

Daily Weather History Graph

Search for Another Location

Airport or City:

Trip Planner

Search our weather history database for the weather conditions in past years. The results will help you decide how hot, cold, wet, or windy it might be!

Date:

Astronomy

Mar. 26, 2014 Rise Set
Actual Time 7:07 AM CDT 7:35 PM CDT
Civil Twilight 6:38 AM CDT 8:04 PM CDT
Nautical Twilight 6:04 AM CDT 8:38 PM CDT
Astronomical Twilight 5:29 AM CDT 9:14 PM CDT
Moon 4:26 AM CDT (3/26) 3:06 PM CDT (3/26)
Length of Visible Light 13h 25m
Length of Day
12h 27m
Waning Crescent, 21% of the Moon is Illuminated
Mar 26
Waning Crescent
Mar 30
New
Apr 7
First Quarter
Apr 15
Full
Apr 22
Last Quarter

Hourly Weather History & Observations

Time (CDT) Temp. Windchill Dew Point Humidity Pressure Visibility Wind Dir Wind Speed Gust Speed Precip Events Conditions
12:15 AM 17.6 °F 9.3 °F 10.4 °F 73% 30.15 in 10.0 mi South 5.8 mph - N/A   Clear
12:35 AM 17.6 °F 8.2 °F 8.6 °F 68% 30.15 in 10.0 mi South 6.9 mph - N/A   Clear
12:55 AM 15.8 °F 5.1 °F 10.4 °F 79% 30.14 in 10.0 mi South 8.1 mph - N/A   Clear
1:15 AM 17.6 °F 8.2 °F 10.4 °F 73% 30.14 in 10.0 mi South 6.9 mph - N/A   Clear
1:35 AM 17.6 °F 8.2 °F 10.4 °F 73% 30.14 in 10.0 mi South 6.9 mph - N/A   Clear
1:55 AM 15.8 °F 5.1 °F 10.4 °F 79% 30.13 in 10.0 mi SSE 8.1 mph - N/A   Clear
2:15 AM 15.8 °F 4.2 °F 10.4 °F 79% 30.13 in 10.0 mi SSE 9.2 mph - N/A   Clear
2:35 AM 15.8 °F 3.4 °F 10.4 °F 79% 30.12 in 10.0 mi SE 10.4 mph - N/A   Clear
2:55 AM 15.8 °F 3.4 °F 10.4 °F 79% 30.11 in 10.0 mi SSE 10.4 mph - N/A   Clear
3:15 AM 17.6 °F 6.4 °F 10.4 °F 73% 30.12 in 10.0 mi South 9.2 mph - N/A   Clear
3:35 AM 17.6 °F 7.3 °F 10.4 °F 73% 30.12 in 10.0 mi South 8.1 mph - N/A   Clear
3:55 AM 17.6 °F 5.7 °F 10.4 °F 73% 30.11 in 10.0 mi South 10.4 mph - N/A   Clear
4:15 AM 17.6 °F 7.3 °F 12.2 °F 79% 30.11 in 10.0 mi South 8.1 mph - N/A   Clear
4:35 AM 17.6 °F 6.4 °F 12.2 °F 79% 30.10 in 10.0 mi SSE 9.2 mph - N/A   Clear
4:55 AM 17.6 °F 5.0 °F 12.2 °F 79% 30.09 in 10.0 mi SSE 11.5 mph - N/A   Scattered Clouds
5:15 AM 17.6 °F 5.7 °F 12.2 °F 79% 30.08 in 10.0 mi SSE 10.4 mph - N/A   Scattered Clouds
5:35 AM 17.6 °F 5.0 °F 12.2 °F 79% 30.08 in 10.0 mi SSE 11.5 mph - N/A   Overcast
5:55 AM 19.4 °F 7.2 °F 12.2 °F 74% 30.08 in 10.0 mi SSE 11.5 mph - N/A   Overcast
6:15 AM 19.4 °F 7.2 °F 12.2 °F 74% 30.08 in 10.0 mi South 11.5 mph - N/A   Overcast
6:35 AM 19.4 °F 6.0 °F 12.2 °F 74% 30.07 in 10.0 mi SSE 13.8 mph - N/A   Overcast
6:55 AM 19.4 °F 5.0 °F 14.0 °F 80% 30.06 in 10.0 mi SSE 16.1 mph - N/A   Overcast
7:15 AM 19.4 °F 5.5 °F 14.0 °F 80% 30.05 in 10.0 mi SSE 15.0 mph - N/A   Overcast
7:35 AM 21.2 °F 8.9 °F 14.0 °F 74% 30.06 in 10.0 mi SSE 12.7 mph 18.4 mph N/A   Overcast
7:55 AM 21.2 °F 7.8 °F 14.0 °F 74% 30.04 in 10.0 mi SSE 15.0 mph - N/A   Overcast
8:15 AM 21.2 °F 7.8 °F 14.0 °F 74% 30.03 in 10.0 mi SSE 15.0 mph - N/A   Overcast
8:35 AM 21.2 °F 7.8 °F 15.8 °F 80% 30.02 in 10.0 mi SSE 15.0 mph - N/A   Overcast
8:55 AM 23.0 °F 9.2 °F 14.0 °F 68% 30.01 in 10.0 mi SSE 17.3 mph - N/A   Overcast
9:15 AM 24.8 °F 11.1 °F 14.0 °F 64% 30.00 in 10.0 mi SSE 18.4 mph 21.9 mph N/A   Mostly Cloudy
9:35 AM 26.6 °F 13.8 °F 15.8 °F 64% 29.99 in 10.0 mi SSE 17.3 mph 21.9 mph N/A   Clear
9:55 AM 28.4 °F 15.4 °F 12.2 °F 51% 29.98 in 10.0 mi SSE 19.6 mph 27.6 mph N/A   Clear
10:15 AM 28.4 °F 16.6 °F 12.2 °F 51% 29.96 in 10.0 mi South 16.1 mph 26.5 mph N/A   Clear
10:35 AM 30.2 °F 17.8 °F 14.0 °F 51% 29.95 in 10.0 mi SSE 19.6 mph 31.1 mph N/A   Clear
10:55 AM 30.2 °F 16.8 °F 14.0 °F 51% 29.93 in 10.0 mi SSE 23.0 mph 27.6 mph N/A   Clear
11:15 AM 33.8 °F 21.3 °F 14.0 °F 44% 29.92 in 10.0 mi SSE 24.2 mph 32.2 mph N/A   Clear
11:35 AM 33.8 °F 21.3 °F 15.8 °F 48% 29.90 in 10.0 mi SSE 24.2 mph 34.5 mph N/A   Clear
11:55 AM 35.6 °F 24.2 °F 15.8 °F 44% 29.89 in 10.0 mi SSE 21.9 mph 31.1 mph N/A   Clear
12:15 PM 35.6 °F 23.2 °F 17.6 °F 48% 29.87 in 10.0 mi SSE 26.5 mph 33.4 mph N/A   Clear
12:35 PM 37.4 °F 25.6 °F 17.6 °F 45% 29.85 in 10.0 mi SSE 26.5 mph 33.4 mph N/A   Clear
12:55 PM 39.2 °F 28.0 °F 19.4 °F 45% 29.84 in 10.0 mi SSE 26.5 mph 31.1 mph N/A   Clear
1:15 PM 39.2 °F 28.7 °F 21.2 °F 49% 29.83 in 10.0 mi SSE 23.0 mph 33.4 mph N/A   Clear
1:35 PM 41.0 °F 31.1 °F 21.2 °F 45% 29.81 in 10.0 mi SSE 23.0 mph 33.4 mph N/A   Clear
1:55 PM 42.8 °F 33.1 °F 21.2 °F 42% 29.79 in 10.0 mi South 25.3 mph 33.4 mph N/A   Clear
2:15 PM 44.6 °F 35.9 °F 23.0 °F 43% 29.78 in 10.0 mi South 23.0 mph 34.5 mph N/A   Clear
2:35 PM 44.6 °F 36.1 °F 23.0 °F 43% 29.76 in 10.0 mi South 21.9 mph 35.7 mph N/A   Clear
2:55 PM 44.6 °F 35.7 °F 24.8 °F 46% 29.74 in 10.0 mi South 24.2 mph 34.5 mph N/A   Clear
3:15 PM 44.6 °F 36.6 °F 24.8 °F 46% 29.73 in 10.0 mi South 19.6 mph 36.8 mph N/A   Clear
3:35 PM 44.6 °F 35.1 °F 24.8 °F 46% 29.71 in 10.0 mi South 27.6 mph 34.5 mph N/A   Clear
3:55 PM 46.4 °F 37.7 °F 24.8 °F 43% 29.70 in 10.0 mi South 26.5 mph 36.8 mph N/A   Clear
4:15 PM 46.4 °F 38.7 °F 26.6 °F 46% 29.69 in 10.0 mi South 20.7 mph 31.1 mph N/A   Clear
4:35 PM 46.4 °F 38.5 °F 24.8 °F 43% 29.68 in 10.0 mi South 21.9 mph 36.8 mph N/A   Clear
4:55 PM 46.4 °F 37.9 °F 24.8 °F 43% 29.67 in 10.0 mi South 25.3 mph 38.0 mph N/A   Clear
5:15 PM 44.6 °F 35.3 °F 26.6 °F 49% 29.66 in 10.0 mi SSE 26.5 mph 34.5 mph N/A   Clear
5:35 PM 44.6 °F 36.4 °F 26.6 °F 49% 29.66 in 10.0 mi SSE 20.7 mph 29.9 mph N/A   Clear
5:55 PM 44.6 °F 36.4 °F 26.6 °F 49% 29.65 in 10.0 mi SSE 20.7 mph 28.8 mph N/A   Clear
6:15 PM 44.6 °F 36.9 °F 26.6 °F 49% 29.64 in 10.0 mi SSE 18.4 mph 27.6 mph N/A   Clear
6:35 PM 44.6 °F 35.9 °F 24.8 °F 46% 29.63 in 10.0 mi SSE 23.0 mph 31.1 mph N/A   Clear
6:55 PM 44.6 °F 35.5 °F 24.8 °F 46% 29.62 in 10.0 mi SSE 25.3 mph 32.2 mph N/A   Clear
7:15 PM 42.8 °F 33.5 °F 24.8 °F 49% 29.60 in 10.0 mi SSE 23.0 mph - N/A   Clear
7:35 PM 41.0 °F 31.1 °F 24.8 °F 53% 29.59 in 10.0 mi SSE 23.0 mph 31.1 mph N/A   Clear
7:55 PM 41.0 °F 30.9 °F 24.8 °F 53% 29.58 in 10.0 mi SSE 24.2 mph - N/A   Clear
8:15 PM 39.2 °F 28.7 °F 24.8 °F 56% 29.57 in 10.0 mi SSE 23.0 mph 29.9 mph N/A   Clear
8:35 PM 41.0 °F 30.2 °F 24.8 °F 53% 29.55 in 10.0 mi SSE 27.6 mph 34.5 mph N/A   Mostly Cloudy
8:55 PM 42.8 °F 33.1 °F 24.8 °F 49% 29.55 in 10.0 mi SSE 25.3 mph 32.2 mph N/A   Overcast
9:15 PM 42.8 °F 32.7 °F 24.8 °F 49% 29.56 in 10.0 mi SSE 27.6 mph 35.7 mph N/A   Overcast
9:35 PM 42.8 °F 34.5 °F 24.8 °F 49% 29.57 in 10.0 mi South 18.4 mph 33.4 mph N/A   Overcast
9:55 PM 42.8 °F 33.8 °F 24.8 °F 49% 29.57 in 10.0 mi South 21.9 mph 31.1 mph N/A   Overcast
10:15 PM 42.8 °F 33.8 °F 26.6 °F 53% 29.56 in 10.0 mi South 21.9 mph 25.3 mph N/A   Overcast
10:35 PM 42.8 °F 34.8 °F 26.6 °F 53% 29.56 in 10.0 mi SSE 17.3 mph 25.3 mph N/A   Overcast
10:55 PM 42.8 °F 34.8 °F 26.6 °F 53% 29.55 in 10.0 mi South 17.3 mph 23.0 mph N/A   Overcast
11:15 PM 42.8 °F 34.8 °F 28.4 °F 57% 29.55 in 10.0 mi South 17.3 mph 23.0 mph N/A   Overcast
11:35 PM 42.8 °F 36.6 °F 30.2 °F 61% 29.55 in 10.0 mi South 11.5 mph 24.2 mph N/A   Overcast
11:55 PM 42.8 °F 35.1 °F 32.0 °F 66% 29.55 in 10.0 mi South 16.1 mph 21.9 mph N/A   Overcast